Regional Weather Roundup
Issued by NWS Charleston, SC

Current Version | Previous Version | Graphics & Text | Print | Product List | Glossary On
Versions: 1 2 3 4 5 6 7 8 9 10 11 12 13 14 15 16 17 18 19 20 21 22 23 24 25 26 27 28 29 30 31 32 33 34 35 36 37 38 39 40 41 42 43 44 45 46 47 48 49 50
000 ASUS42 KCHS 190712 RWRCHS Regional Weather Roundup National Weather Service Charleston SC 200 AM EST MON FEB 19 2018 NOTE: "fair" indicates few or no clouds below 12,000 feet with no significant weather and/or obstructions to visibility. Not all stations are quality controlled. Use data with caution, especially dewpoint observations. SCZ027-030-031-034>040-042>050-190800- ...Southeast South Carolina... CITY SKY/WX TMP DP RH WIND PRES REMARKS N Charleston CLOUDY 58 55 90 NE6 30.33F Waterfront Prk N/A 58 57 96 NE5 30.19S Mount Pleasant CLOUDY 57 55 94 N5 30.34S FOG Johns Island CLOUDY 59 57 94 NE6 30.33S Pinopolis N/A 55 54 94 E7 30.26F Moncks Corner CLOUDY 55 52 88 E7 30.35S Summerville CLOUDY 55 52 88 CALM 30.35F Beaufort MCAS CLOUDY 62 59 90 NE6 30.32S Beaufort Arpt CLOUDY 59 57 94 NE7 30.32S Hilton Head Is FAIR 59 57 94 NE7 30.33S Walterboro PTSUNNY 54 52 94 NE3 30.34F Allendale CLOUDY 57 52 82 CALM 30.32F ...Southern Midlands and Pee Dee... CITY SKY/WX TMP DP RH WIND PRES REMARKS Georgetown CLOUDY 54 52 94 NE5 30.37F Kingstree CLOUDY 54 48 82 NE3 30.37S Orangeburg CLOUDY 57 50 77 E5 30.34F Barnwell N/A 59 54 82 E5 30.33F Aiken CLOUDY 55 48 76 E6 30.36S Manning CLOUDY 55 36 47 MISG 30.36S Columbia CLOUDY 58 49 72 E10 30.34S Sumter CLOUDY 56 46 69 E8 30.34F Florence CLOUDY 50 49 96 E12 30.39F Myrtle Beach CLOUDY 52 48 86 NE8 30.39S N Myrtle Beach CLOUDY 51 47 86 NE8 30.38S $$ GAZ063-065-086>088-099>101-113>116-118-119-134>141-150-190800- ...Southeast Georgia... CITY SKY/WX TMP DP RH WIND PRES REMARKS Savannah Arpt MOCLDY 58 57 97 E3 30.31F Hunter AAF FAIR 59 55 89 NE3 30.29S Fort Stewart CLOUDY 58 57 95 CALM 30.29F Statesboro CLOUDY 61 54 76 CALM 30.32S Sylvania CLOUDY 60 57 88 SE6 30.33S Claxton CLOUDY 61 58 92 CALM 30.31F ...CSRA, Central and far Southeast Georgia... CITY SKY/WX TMP DP RH WIND PRES REMARKS Thomson CLOUDY 58 55 88 S3 30.36S Augusta-Bush CLOUDY 57 53 86 SE5 30.32S Augusta-Daniel CLOUDY 58 52 80 SE7 30.32F Swainsboro CLOUDY 61 59 94 SE7 30.31F Vidalia CLOUDY 63 61 94 SE5 30.31S Eastman CLOUDY 64 55 73 S9 30.31F Hazlehurst CLOUDY 64 62 92 SE8 30.29S Alma CLOUDY 64 60 87 SE6 30.30S Waycross CLOUDY 64 61 90 SE3 30.30F Jesup PTSUNNY 63 57 82 CALM 30.31F Baxley CLOUDY 61 61 100 S5 30.30S Brunswick CLOUDY 61 59 94 NE3 30.31F Saint Simons CLOUDY 62 60 93 NE3 30.29F $$ SCZ027-028-034-036>038-045-046-048>050-GAZ119-141-190800- ...Lake and Supplemental Coastal Observations... STATION/POSITION TIME TEMP WIND PRES WAVE SWELL AIR SEA DIR/SP/G HT/PER HT/PER/DIR (UTC) (F) (DEG/KT/KT) (MB) (FT/S) (FT/S/D) Winyah Bay NOT AVBL Lake Murray 0620 57 120/ 5/ 11 1026.8 ACE Basin NERRS 0545 60 30/ 3 1027.0 Fort Pulaski 0648 59 59 70/ 8/ 11 1026.7F Sapelo Island 0600 61 40/ 5 1026.0 $$ ANZ835-935-AMZ111-154-330-350-352-354-370-450-454-472-190800- ...C-MAN and Buoy Observations... STATION/POSITION TIME TEMP WIND PRES WAVE SWELL AIR SEA DIR/SP/G HT/PER HT/PER/DIR (UTC) (F) (DEG/KT/KT) (MB) (FT/S) (FT/S/D) Buoy 41004 0650 69 130/ 12/ 14 1026.6R 5/ 6 5/ 60/ 6 Buoy 41008 0650 59 58 10/ 6/ 8 1025.5F 3/10 2/100/10 Folly Beach CMAN 0600 57 40/ 15/ 17 1027.6S Capers Nearshore 0608 52 56 40/ 17/ 25 1026.6F Fripp Nearshore 0608 55 57 60/ 14/ 19 1025.8 STATION/POSITION TIME TEMP WIND PRES WAVE SWELL AIR SEA DIR/SP/G HT/PER HT/PER/DIR (UTC) (F) (DEG/KT/KT) (MB) (FT/S) (FT/S/D) 5E St. Marys GA 0630 59 N/A 2/10 Frying Pan Buoy 0650 67 100/ 16/ 17 N/A 6/ 7 5/ 70/ 7 Buoy 41025 0650 62 110/ 10/ 14 1031.2F 6/ 9 5/ 50/ 9 Cape Lookout NC 0600 40/ 19/ 22 1030.8F Buoy 41002 0650 69 72 80/ 14/ 16 1028.0F 6/ 8 5/ 10/ 8 Buoy 41010 NOT AVBL St Augustine FL 0700 60 59 340/ 9/ 10 1025.4F $$

USA.gov is the U.S. government's official web portal to all federal, state and local government web resources and services.